[[{"header":{"parameterUnit":"m.s-1","parameterCategory":1,"la1":30.2991,"la2":30.254,"lo1":-89.0895,"lo2":-89.0444,"dy":0.0017,"dx":0.0017,"nx":28,"ny":28,"refTime":"2023-10-26T09:00:00:Z","depth":0,"parameterNumber":2,"parameterNumberName":"U-component_of_WINDS"},"data":[0,0,0,0,0,0,0,0,0,0,0,0,0,0,0,0,0,0,0,0,0,0,0,0,0,0,0,0,0,0,0,0,0,0,0,0,0,0,0,0,0,0,0,0,0,0,0,0,0,0,0,0,0,0,0,0,0,0,-2.6192,-2.6192,0,-2.6227,-2.6227,-2.6228,-2.6171,-2.6169,-2.6167,-2.6166,-2.6201,-2.6203,-2.6206,0,0,0,0,0,0,0,0,0,0,0,0,0,-2.6077,-2.6079,-2.6192,-2.6192,-2.6193,-2.6227,-2.6227,-2.6228,-2.6172,-2.6169,-2.6167,-2.6165,-2.62,-2.6203,-2.6206,0,0,0,0,0,0,0,0,0,0,0,0,0,-2.6121,-2.608,-2.6192,-2.6169,-2.6167,-2.6227,-2.6227,-2.6228,-2.6172,-2.6169,-2.6166,-2.6164,-2.6199,-2.6203,-2.6207,-2.629,0,0,-2.6219,-2.6221,0,0,0,0,0,0,0,0,-2.6119,-2.6125,-2.6172,-2.6171,-2.6169,-2.6192,-2.62,-2.6249,-2.6173,-2.617,-2.6166,-2.6162,-2.62,-2.6204,-2.6217,-2.6292,-2.6293,-2.622,-2.6222,-2.6224,-2.6225,0,0,0,0,0,0,0,-2.6116,-2.6123,-2.6206,-2.6173,-2.6171,-2.6157,-2.616,-2.6209,-2.6201,-2.617,-2.6166,-2.6171,-2.6199,-2.6213,-2.6217,-2.6294,-2.6219,-2.6223,-2.6226,-2.6227,-2.644,-2.6443,0,0,0,0,0,0,-2.6115,-2.6121,-2.6205,-2.6207,-2.6136,-2.6162,-2.6165,-2.6187,-2.62,-2.6199,-2.6174,-2.6168,-2.6207,-2.6212,-2.6218,-2.6317,-2.6224,-2.6228,-2.623,-2.6437,-2.6441,-2.6444,0,0,0,0,0,0,-2.6113,-2.6123,-2.6203,-2.6163,-2.6172,-2.6167,-2.6192,-2.619,-2.6204,-2.6203,-2.6201,-2.619,-2.6205,-2.6212,-2.6273,-2.6317,-2.6229,-2.6233,-2.6433,-2.6438,-2.6443,-2.6515,0,0,0,0,0,0,-2.611,-2.6123,-2.6154,-2.6164,-2.6175,-2.6257,-2.6195,-2.6192,-2.6211,-2.6205,-2.6217,-2.6217,-2.6203,-2.6267,-2.6277,-2.6321,-2.6236,-2.6429,-2.6436,-2.6441,-2.6509,-2.6522,-2.6533,0,0,0,0,0,-2.6106,-2.6173,-2.6156,-2.6166,-2.6213,-2.626,-2.6266,-2.625,-2.6215,-2.6246,-2.6246,-2.6216,-2.6311,-2.6274,-2.6284,-2.6331,-2.6426,-2.6434,-2.6441,-2.6503,-2.6519,-2.6533,0,0,0,0,0,0,-2.6167,-2.6173,-2.6155,-2.6227,-2.6243,-2.625,-2.6289,-2.6267,-2.6293,-2.6286,-2.6265,-2.6268,-2.6333,-2.6338,-2.6296,-2.6413,-2.6363,-2.6373,-2.6407,-2.6422,-2.6434,-2.6431,-2.624,0,0,0,0,0,-2.6189,-2.6226,-2.623,-2.6293,-2.6302,-2.6295,-2.6314,-2.6301,-2.6317,-2.6323,-2.6327,-2.6344,-2.6378,-2.6401,-2.6432,-2.651,-2.6512,-2.6547,-2.6559,-2.6569,-2.6578,-2.662,-2.6636,-2.6468,-2.6468,-2.6468,0,0,-2.6234,-2.6242,-2.6267,-2.6305,-2.6316,-2.6356,-2.6301,-2.6344,-2.6373,-2.633,-2.6387,-2.6392,-2.6409,-2.6479,-2.651,-2.6485,-2.6625,-2.6579,-2.6587,-2.6589,-2.6629,-2.6645,-2.666,-2.6473,-2.6472,-2.6471,0,0,-2.6336,-2.6346,-2.64,-2.6413,-2.6431,-2.6427,-2.644,-2.6451,-2.6452,-2.651,-2.6479,-2.6513,-2.6572,-2.6586,-2.66,-2.6712,-2.6685,-2.6722,-2.6785,-2.6827,-2.684,-2.6852,-2.6892,-2.6906,-2.6731,-2.6731,-2.6731,0,-2.639,-2.6448,-2.643,-2.6477,-2.6495,-2.6459,-2.6514,-2.6527,-2.6555,-2.6568,-2.654,-2.6614,-2.6623,-2.6697,-2.6724,-2.6737,-2.6752,-2.672,-2.684,-2.6851,-2.6862,-2.69,-2.6914,-2.6735,-2.6735,-2.6734,-2.6734,0,-2.6513,-2.6554,-2.6595,-2.6624,-2.6647,-2.6697,-2.6688,-2.6713,-2.6699,-2.6697,-2.6757,-2.6768,-2.6801,-2.6817,-2.6803,-2.689,-2.6873,-2.6843,-2.6792,-2.6883,-2.6918,-2.6932,-2.6742,-2.674,-2.6739,-2.6738,0,0,-2.6651,-2.6672,-2.6687,-2.67,-2.6719,-2.675,-2.68,-2.6833,-2.6856,-2.6877,-2.6918,-2.6969,-2.6942,-2.6959,-2.6947,-2.6984,-2.7071,-2.6949,-2.6949,-2.6971,-2.7168,-2.719,-2.7207,-2.7055,-2.7058,-2.706,-2.7166,0,-2.6753,-2.6838,-2.6826,-2.6908,-2.6946,-2.6914,-2.6957,-2.6974,-2.6975,-2.7007,-2.7008,-2.7045,-2.7006,-2.7016,-2.7052,-2.7053,-2.7111,-2.7046,-2.7093,-2.7095,-2.7088,-2.7225,-2.7248,-2.7348,-2.718,-2.7182,-2.7184,0,-2.6882,-2.6909,-2.6995,-2.701,-2.7025,-2.7065,-2.7095,-2.7126,-2.7145,-2.7143,-2.7164,-2.7145,-2.7195,-2.7145,-2.7215,-2.7171,-2.719,-2.7194,-2.7197,-2.72,-2.7144,-2.7231,-2.7379,-2.7394,-2.7205,-2.7204,-2.7202,0,-2.6974,-2.7032,-2.7092,-2.7104,-2.7122,-2.7151,-2.716,-2.7176,-2.7197,-2.7224,-2.7238,-2.727,-2.7287,-2.7313,-2.7304,-2.7268,-2.7375,-2.7324,-2.7375,-2.7375,-2.7397,-2.7396,-2.755,-2.7412,-2.7412,-2.7411,-2.7411,0,-2.7088,-2.7142,-2.7134,-2.717,-2.723,-2.7216,-2.7276,-2.7281,-2.7296,-2.7333,-2.7308,-2.7344,-2.733,-2.7365,-2.7358,-2.7417,-2.7425,-2.7425,-2.7422,-2.7427,-2.7427,-2.7438,-2.743,-2.7415,-2.7414,-2.7414,-2.7413,0,-2.7201,-2.7197,-2.7259,-2.7273,-2.7278,-2.7321,-2.7333,-2.7367,-2.7367,-2.7415,-2.7425,-2.7425,-2.7465,-2.7459,-2.7503,-2.7499,-2.7572,-2.7561,-2.7566,-2.7563,-2.7613,-2.7609,-2.7779,-2.7801,-2.765,-2.7651,-2.7652,0,-2.7273,-2.7314,-2.7332,-2.7356,-2.7367,-2.7405,-2.7427,-2.7416,-2.744,-2.7466,-2.7498,-2.7536,-2.7565,-2.7631,-2.7635,-2.7669,-2.7659,-2.7717,-2.7664,-2.7667,-2.7659,-2.7656,-2.7661,-2.7726,-2.7728,-2.7729,-2.7731,0,-2.7402,-2.7398,-2.7431,-2.7464,-2.7492,-2.7517,-2.754,-2.756,-2.7551,-2.758,-2.7621,-2.7644,-2.7691,-2.7729,-2.7762,-2.7771,-2.775,-2.7748,-2.7761,-2.7765,-2.7766,-2.7766,-2.7593,-2.7743,-2.7742,-2.7741,-2.774,-2.774,-2.7496,-2.7531,-2.755,-2.7588,-2.7604,-2.7627,-2.766,-2.7665,-2.7699,-2.7736,-2.7728,-2.7775,-2.7794,-2.7836,-2.785,-2.7886,-2.7865,-2.7885,-2.7889,-2.7894,-2.79,-2.7761,-2.7892,-2.7892,-2.7892,-2.7891,-2.7891,0,-2.7623,-2.7634,-2.7669,-2.7703,-2.7733,-2.7711,-2.7736,-2.7763,-2.7804,-2.7825,-2.7855,-2.7903,-2.7941,-2.7949,-2.7985,-2.8013,-2.8004,-2.8023,-2.802,-2.8023,-2.7917,-2.7902,-2.803,-2.803,-2.803,-2.8029,-2.8029,-2.8029,-2.7692,-2.7751,-2.7751,-2.7818,-2.7829,-2.7875,-2.7891,-2.7912,-2.7928,-2.7983,-2.8015,-2.802,-2.8036,-2.8074,-2.8108,-2.8109,-2.8123,-2.8146,-2.8143,-2.8044,-2.803,-2.8017,-2.8002,-2.8149,-2.8149,-2.8246,-2.8247,-2.8247]},{"header":{"parameterUnit":"m.s-1","parameterCategory":1,"la1":30.2991,"la2":30.254,"lo1":-89.0895,"lo2":-89.0444,"dy":0.0017,"dx":0.0017,"nx":28,"ny":28,"refTime":"2023-10-26T09:00:00:Z","depth":0,"parameterNumber":3,"parameterNumberName":"V-component_of_WINDS"},"data":[0,0,0,0,0,0,0,0,0,0,0,0,0,0,0,0,0,0,0,0,0,0,0,0,0,0,0,0,0,0,0,0,0,0,0,0,0,0,0,0,0,0,0,0,0,0,0,0,0,0,0,0,0,0,0,0,0,0,0.7734,0.7733,0,0.764,0.7638,0.7637,0.7566,0.7565,0.7564,0.7564,0.746,0.7458,0.7456,0,0,0,0,0,0,0,0,0,0,0,0,0,0.7848,0.7846,0.7734,0.7733,0.7732,0.764,0.7638,0.7637,0.7566,0.7565,0.7564,0.7564,0.7461,0.7458,0.7456,0,0,0,0,0,0,0,0,0,0,0,0,0,0.778,0.7846,0.7734,0.7685,0.768,0.764,0.7638,0.7637,0.7566,0.7565,0.7564,0.7563,0.7462,0.7459,0.7455,0.7454,0,0,0.7445,0.7444,0,0,0,0,0,0,0,0,0.7784,0.7776,0.7694,0.7689,0.7683,0.7614,0.764,0.7575,0.7566,0.7609,0.7564,0.7563,0.7512,0.7504,0.7488,0.7449,0.7445,0.7445,0.7443,0.7442,0.7441,0,0,0,0,0,0,0,0.7789,0.778,0.7696,0.7693,0.7686,0.7666,0.7656,0.7628,0.7566,0.7605,0.76,0.759,0.7508,0.7492,0.7485,0.7444,0.7445,0.7442,0.744,0.7439,0.74,0.74,0,0,0,0,0,0,0.7802,0.7784,0.7699,0.7694,0.7732,0.7665,0.7653,0.7637,0.7567,0.7555,0.7591,0.7587,0.7498,0.7489,0.7481,0.7475,0.7442,0.7439,0.7437,0.7399,0.74,0.7401,0,0,0,0,0,0,0.7805,0.7795,0.7703,0.7737,0.7724,0.7664,0.7646,0.7635,0.7618,0.7556,0.7544,0.7586,0.7496,0.7486,0.7462,0.7471,0.7437,0.7434,0.7398,0.7399,0.74,0.7464,0,0,0,0,0,0,0.7808,0.7797,0.7797,0.7738,0.7723,0.7688,0.7647,0.7634,0.7614,0.7608,0.7548,0.7537,0.7495,0.7467,0.7459,0.7466,0.7432,0.7396,0.7398,0.74,0.7461,0.7467,0.7473,0,0,0,0,0,0.7813,0.7817,0.7797,0.7787,0.7722,0.7688,0.7679,0.7633,0.7615,0.7614,0.7574,0.7539,0.7472,0.7466,0.7455,0.7461,0.7396,0.7398,0.74,0.7458,0.7466,0.7473,0,0,0,0,0,0,0.7875,0.7808,0.7785,0.7771,0.7736,0.7676,0.7673,0.7643,0.761,0.7606,0.7548,0.7535,0.7517,0.7487,0.7481,0.7457,0.7429,0.7429,0.7477,0.7484,0.749,0.7497,0.7429,0,0,0,0,0,0.7888,0.7868,0.781,0.7803,0.7787,0.7734,0.7717,0.7685,0.7645,0.7629,0.7587,0.7549,0.7519,0.75,0.7469,0.7457,0.7442,0.7456,0.7462,0.7468,0.7468,0.7459,0.7464,0.7407,0.7407,0.7407,0,0,0.7912,0.7874,0.7864,0.7814,0.7783,0.7762,0.7721,0.77,0.7684,0.7625,0.7601,0.7569,0.7522,0.7504,0.7494,0.7478,0.7481,0.747,0.7475,0.7472,0.7462,0.7467,0.7472,0.7409,0.7409,0.7408,0,0,0.7947,0.7916,0.7907,0.7878,0.7833,0.7798,0.7796,0.7741,0.7718,0.7694,0.765,0.7628,0.7578,0.7547,0.7524,0.755,0.7515,0.7541,0.7572,0.7564,0.7569,0.7572,0.758,0.7584,0.7542,0.7542,0.7542,0,0.7982,0.7951,0.7905,0.7888,0.7867,0.7817,0.7806,0.7779,0.7726,0.7712,0.7696,0.7633,0.7598,0.7572,0.7579,0.7562,0.7557,0.7546,0.7572,0.7575,0.7578,0.7585,0.7588,0.7545,0.7545,0.7544,0.7544,0,0.7996,0.7976,0.7973,0.7926,0.7905,0.7891,0.7842,0.7826,0.7797,0.7763,0.7738,0.7695,0.7655,0.7647,0.7616,0.7617,0.7608,0.7583,0.7554,0.7587,0.7593,0.7596,0.755,0.7549,0.7548,0.7547,0,0,0.8064,0.7994,0.7994,0.7972,0.792,0.7902,0.7886,0.7849,0.7836,0.7802,0.7786,0.7746,0.7723,0.7698,0.7664,0.7657,0.768,0.7632,0.763,0.7642,0.7677,0.7695,0.7699,0.7658,0.7659,0.7659,0.768,0,0.8089,0.806,0.8019,0.8002,0.7982,0.7935,0.7921,0.7887,0.7856,0.7832,0.7797,0.777,0.7742,0.7726,0.7718,0.7679,0.7686,0.7677,0.7641,0.764,0.7653,0.7702,0.7721,0.7743,0.7683,0.7683,0.7683,0,0.8113,0.8085,0.8067,0.8017,0.8007,0.7996,0.7959,0.7939,0.7899,0.7876,0.785,0.7814,0.7793,0.7769,0.7739,0.7734,0.7717,0.7696,0.7696,0.7689,0.7662,0.7695,0.7749,0.7753,0.7686,0.7686,0.7686,0,0.8164,0.812,0.8104,0.8087,0.8029,0.8022,0.7997,0.7957,0.7938,0.7906,0.7893,0.7858,0.7839,0.7812,0.7767,0.7754,0.7742,0.7714,0.7721,0.7723,0.7719,0.7719,0.777,0.7711,0.7711,0.7711,0.7711,0,0.8195,0.8185,0.8126,0.8115,0.8103,0.8057,0.8046,0.8017,0.7982,0.7964,0.7921,0.7905,0.7848,0.7825,0.779,0.777,0.7761,0.7742,0.7732,0.7745,0.7747,0.7731,0.7728,0.7712,0.7712,0.7712,0.7711,0,0.8248,0.8208,0.8187,0.8136,0.8122,0.8116,0.8071,0.8058,0.8026,0.8004,0.7996,0.7945,0.7915,0.7869,0.7825,0.7802,0.7788,0.7773,0.7802,0.7796,0.7806,0.7805,0.7846,0.7849,0.779,0.7791,0.7792,0,0.8269,0.8261,0.821,0.8197,0.8174,0.8152,0.8134,0.8088,0.807,0.8026,0.8019,0.7987,0.7959,0.7914,0.7871,0.7838,0.7821,0.7838,0.7815,0.7828,0.7819,0.782,0.7818,0.7842,0.7843,0.7844,0.7844,0,0.8311,0.8293,0.8269,0.8238,0.8218,0.8191,0.8162,0.8153,0.81,0.8082,0.8053,0.8032,0.7989,0.7957,0.7919,0.7891,0.7858,0.7852,0.7852,0.7863,0.788,0.787,0.7815,0.7851,0.785,0.785,0.7849,0.7849,0.8348,0.8339,0.8302,0.8277,0.8251,0.8226,0.8212,0.818,0.8155,0.8119,0.8093,0.8066,0.8027,0.7972,0.7946,0.7923,0.7909,0.7909,0.7908,0.7908,0.7913,0.7886,0.7916,0.7916,0.7915,0.7915,0.7915,0,0.8387,0.8362,0.834,0.8302,0.8282,0.8257,0.8224,0.8208,0.8185,0.8153,0.8128,0.8095,0.8064,0.8021,0.7987,0.7977,0.7961,0.7969,0.7968,0.7963,0.7928,0.7931,0.7983,0.7983,0.7983,0.7983,0.7983,0.7983,0.8405,0.8388,0.8366,0.8336,0.831,0.8285,0.8269,0.8244,0.8219,0.8185,0.816,0.8134,0.8096,0.806,0.8031,0.8019,0.8007,0.802,0.8003,0.7971,0.7965,0.7959,0.7962,0.8019,0.8019,0.8039,0.804,0.804]}]]